Zurück zum Katalog

COSMOS 1818 COOLANT

LostLEO
NORAD 36943·DEBRIS·🇷🇺 Russia

Gestartet Feb 1, 1987 von Baikonur Cosmodrome

Loading…

Nächste Überflüge (nächste 24 Stunden)

TLE

VeraltetSource: Space-Track

Epoche: Sep 22, 2022, 02:55 UTC

1 36943U 87011X   22265.12183948  .00000362  00000-0  16619-3 0  9992
2 36943  65.0084  86.7351 0015622 245.4773 114.4684 14.33757623653595

Verfolge COSMOS 1818 COOLANT in Echtzeit mit AllMySat

Download on the App Store